{"data":{"norad_id":58660,"epoch":"2026-05-25T03:44:16.874304Z","epoch_age_seconds":58727,"freshness":"FRESH","line1":"1 58660U 23208A   26145.15575086  .00007333  00000+0  24609-3 0  9994","line2":"2 58660  97.4476 261.3484 0005790  52.0608 308.1156 15.31164479133804","mean_motion":15.31164479,"eccentricity":0.000579,"inclination_deg":97.4476,"raan_deg":261.3484,"arg_perigee_deg":52.0608,"mean_anomaly_deg":308.1156,"bstar":0.00024609,"rev_number":13380,"period_min":94.0460688417,"perigee_km":468.37039636934,"apogee_km":476.30324505373,"semimajor_km":6850.4738207115,"source":"CELESTRAK","updated_at":"2026-05-25T13:38:12.258561Z"}}